Location: Caltech
(34.1382°N, 118.1253°W)
Time: 13:15:00
(UTC-08:00)

Saudisat 1A - Visible Passes

Search period start: 17 January 2017 00:00
Search period end: 27 January 2017 00:00
Orbit: 568 x 625 km, 64.6° (Epoch: 16 January)

Date Brightness Start Highest point End Pass type
(mag) Time Alt. Az. Time Alt. Az. Time Alt. Az.
22 Jan 10.5 05:56:24 10° N 05:59:19 17° NE 06:02:12 10° E visible
23 Jan 9.8 06:05:42 10° N 06:09:35 29° NE 06:13:24 10° ESE visible
24 Jan 8.7 06:15:23 10° NNW 06:19:45 54° ENE 06:24:00 10° SE visible
25 Jan 10.9 04:48:30 10° NNE 04:49:49 11° NE 04:51:07 10° ENE visible
25 Jan 8.0 06:25:22 10° NNW 06:29:48 77° WSW 06:34:07 10° SSE visible
26 Jan 10.4 04:57:00 10° N 05:00:11 19° NE 05:03:20 10° E visible
